Temp
70 70 71 70 71 71 73 75 74 75 75 75 75 75 75 75 75 75 74 75 73 70 68 69 70 70 75 72 73 74 75 74 74 74 74 74 74 74 73 73 72 71 71 71 71 72 73 72 73 73 73 74 72 67 68 67 68 67 67 68 67 68
69 70 70 71 71 71 72 73 70 70 71 73 74 75 74 71 75 70 75 72 68 70 66 66 67 74 69 72 72 75 75 74 74 74 74 74 74 73 73 73 72 72 71 71 72 65 65 69 72 73 74 72 67 66 68 67 67 67 67 67 67 71
69 69 70 70 71 71 70 70 69 69 71 73 73 72 70 71 69 69 69 69 68 66 66 66 67 71 71 73 71 75 75 74 74 74 74 74 74 74 73 73 72 72 72 71 67 63 63 63 63 71 71 67 65 67 68 67 67 66 66 67 67 73
70 69 69 69 70 70 69 69 69 70 69 69 69 69 67 66 67 67 68 67 66 68 66 65 71 74 74 70 70 74 75 75 75 74 74 72 74 73 73 73 72 72 70 68 63 64 65 64 65 65 64 64 67 69 67 67 66 66 66 69 68 74
70 70 69 69 70 68 69 68 68 68 68 67 66 66 66 67 67 67 67 67 66 67 65 65 66 67 67 68 67 67 69 68 67 67 72 66 66 69 69 68 67 68 64 64 64 65 64 65 66 66 65 65 67 68 68 67 67 66 66 68 68 73
69 69 69 68 68 70 70 68 67 67 67 67 65 66 66 65 66 66 66 67 68 66 65 65 65 65 66 66 67 66 66 66 66 65 68 65 66 66 66 68 67 67 66 66 66 66 65 66 66 66 67 65 67 68 69 68 67 66 66 66 70 73
68 68 68 68 68 69 68 68 67 67 66 66 66 65 66 66 66 66 66 68 66 65 65 64 64 65 66 66 68 66 66 66 65 64 66 65 65 66 67 67 66 67 66 66 67 68 66 66 66 68 69 69 68 70 69 68 66 65 65 65 70 73
68 68 67 68 68 68 68 68 69 70 67 68 67 66 65 66 67 66 67 67 67 66 66 65 65 65 65 65 67 67 66 66 66 64 65 65 65 65 66 67 67 67 67 67 68 68 68 69 69 68 70 70 69 69 68 67 66 66 65 65 68 72
68 68 67 68 68 67 68 68 67 66 65 71 66 66 65 66 66 66 67 67 69 66 66 65 65 66 65 65 65 66 65 66 65 65 65 64 65 66 66 67 67 68 68 68 66 67 68 70 70 69 68 70 69 68 67 66 66 66 65 65 66 70
68 68 68 68 68 67 67 67 66 66 65 70 66 66 66 65 65 66 66 67 67 66 66 65 65 65 65 65 64 65 65 65 66 66 65 65 65 65 65 65 66 67 69 69 68 66 67 66 68 68 67 68 68 68 67 66 66 66 66 66 66 69
68 71 68 68 67 67 67 66 67 67 67 68 66 66 65 65 66 66 66 66 66 66 65 65 64 64 65 65 65 65 65 64 65 66 66 65 66 65 65 65 66 66 66 65 64 64 65 66 65 68 68 69 68 68 67 66 67 66 67 66 66 66
68 69 68 67 68 67 67 67 68 67 67 67 67 65 65 66 67 66 66 65 65 65 66 65 65 65 66 65 65 65 65 65 65 65 66 66 65 66 65 65 67 67 66 66 65 64 64 64 65 67 68 68 68 67 67 67 67 67 67 66 66 67
68 68 66 67 67 67 67 68 67 67 67 68 67 66 66 66 66 65 64 64 64 65 65 66 65 65 67 65 65 65 64 66 66 66 66 65 66 65 66 65 64 66 65 64 64 64 65 65 64 66 67 68 67 68 68 68 67 66 67 66 65 65
68 67 66 67 67 66 68 68 68 67 67 66 66 65 66 65 66 65 65 64 65 65 66 65 65 65 65 65 65 65 65 65 65 66 65 65 65 64 64 64 64 65 67 66 64 64 63 64 64 65 66 68 67 67 67 68 67 67 67 66 66 65
68 66 68 66 67 66 67 68 67 67 67 66 66 65 65 65 65 66 65 64 65 66 66 66 66 65 65 65 65 65 65 66 65 65 65 65 65 64 64 64 64 64 63 64 64 65 64 63 63 65 66 66 66 67 66 68 67 67 67 66 65 65
67 66 65 66 66 66 67 67 66 69 66 65 66 65 65 65 65 65 66 66 65 66 66 66 66 66 65 65 64 65 64 64 65 65 64 64 65 64 64 63 64 64 62 63 64 64 65 64 64 65 66 65 66 65 64 65 66 66 66 66 66 65
66 66 66 67 66 66 67 66 65 66 66 66 65 65 65 65 65 65 65 66 65 66 67 66 65 65 64 65 64 65 64 64 65 64 64 63 63 63 63 63 62 64 63 62 62 63 64 64 65 66 66 66 65 64 64 64 64 65 65 64 64 65
66 67 66 65 66 66 66 66 66 64 67 66 65 65 65 65 65 65 64 65 65 66 66 66 66 66 65 66 65 65 64 64 65 64 64 63 63 63 63 62 62 62 63 62 62 62 62 63 65 65 64 64 63 63 63 63 64 65 63 63 63 64
67 66 66 66 68 67 66 65 64 64 65 64 64 64 64 64 64 64 63 64 65 65 66 67 67 67 66 66 65 65 65 64 65 64 64 64 63 62 63 63 63 62 63 63 62 62 62 62 64 65 65 63 63 62 62 63 64 63 63 63 65 66
65 66 66 66 65 64 64 64 64 63 63 64 64 64 65 64 64 64 64 65 64 64 65 66 66 67 67 66 65 65 65 65 64 64 65 65 64 64 64 63 63 63 62 63 63 63 62 62 63 63 63 62 62 63 63 63 63 64 63 64 65 65
65 65 64 64 63 63 63 62 63 62 63 63 64 65 64 64 63 63 64 64 64 64 63 64 65 65 66 67 66 65 64 64 64 64 64 65 65 65 65 64 63 63 62 61 62 62 62 62 61 60 61 61 61 61 64 64 63 63 63 64 64 64
66 66 66 66 65 65 63 64 64 63 62 63 63 63 63 62 63 64 64 64 64 64 64 63 64 65 65 64 65 65 65 65 65 64 63 65 65 65 64 64 65 64 64 62 61 61 61 62 59 59 58 56 58 61 62 63 63 63 63 64 64 64
67 67 67 69 68 67 65 66 65 64 63 63 64 63 64 64 64 64 64 64 63 63 64 63 64 65 65 65 65 65 65 64 64 63 63 64 64 63 63 64 65 64 63 62 62 62 62 63 60 58 57 57 57 57 60 59 61 62 63 63 63 63
66 67 66 68 68 68 69 69 68 67 66 64 63 65 64 64 64 64 64 64 63 64 64 64 64 64 65 66 66 65 65 64 64 64 64 63 63 63 64 64 64 64 64 62 63 63 64 63 62 58 56 57 58 57 56 58 59 61 64 64 63 63
66 66 66 67 67 67 68 68 68 68 66 65 65 64 64 64 64 64 64 64 64 65 65 64 64 64 65 65 66 66 66 65 64 64 64 64 64 64 64 64 65 64 63 62 62 64 63 63 63 63 60 56 55 55 56 58 57 59 62 62 63 63
66 66 66 66 67 67 66 65 65 65 64 64 63 64 64 64 64 63 64 64 65 65 65 65 64 64 65 66 65 66 66 65 64 64 64 64 64 64 63 63 63 63 63 64 63 62 62 63 64 64 63 62 61 58 57 58 58 54 60 63 63 63
64 64 65 65 67 66 65 65 64 64 64 64 63 64 65 66 66 66 66 65 65 65 65 65 64 65 65 65 65 66 64 64 64 64 64 63 63 63 63 63 63 63 63 62 61 60 60 62 63 63 63 63 62 62 59 58 56 57 55 58 61 61
62 63 64 65 65 66 65 64 64 64 64 64 63 63 64 65 66 66 65 65 65 65 65 65 64 64 65 65 66 65 65 65 64 65 64 63 63 63 63 64 64 64 64 63 62 61 61 61 60 61 63 61 60 62 62 60 60 59 56 55 57 61
63 63 62 63 63 63 64 64 64 63 62 64 64 64 64 65 65 65 65 66 66 67 66 64 64 64 65 66 66 66 65 64 64 64 65 63 63 64 63 63 63 63 63 63 63 63 61 61 61 60 61 61 61 60 61 61 61 60 56 55 56 58
63 63 64 63 63 62 63 64 63 62 61 61 63 63 63 63 63 63 63 64 65 65 66 66 66 65 65 66 65 65 64 64 64 64 65 64 64 63 64 63 64 63 64 63 63 62 61 61 62 62 62 61 59 59 59 59 59 59 58 58 55 56
60 61 63 63 64 63 63 63 62 62 61 61 61 61 61 61 61 61 61 62 63 63 64 64 64 64 64 65 65 66 65 64 64 64 64 64 63 63 63 63 64 64 63 62 62 63 62 62 62 62 62 61 60 60 59 58 59 59 59 57 56 57
57 56 58 61 62 62 62 62 62 62 61 61 60 60 59 59 60 59 59 59 61 62 62 62 62 63 64 64 65 64 65 65 64 64 63 64 64 64 64 64 64 63 63 63 63 63 62 62 62 62 62 62 61 62 61 60 60 60 59 58 58 57
55 55 56 57 57 58 61 61 61 61 61 61 60 59 58 59 59 59 59 59 60 60 60 60 61 63 64 64 64 64 64 64 64 64 64 63 63 64 64 64 64 63 63 63 63 63 62 62 62 61 61 62 62 62 61 62 61 60 60 60 59 57
54 54 55 56 56 57 58 59 59 60 60 60 59 59 58 58 59 59 59 58 59 60 60 60 61 62 63 64 64 65 65 65 65 64 64 63 63 63 64 63 63 63 63 63 63 63 63 63 63 63 63 62 62 62 62 63 62 61 60 59 58 58
55 55 55 54 55 55 56 57 58 59 60 61 60 60 59 59 59 59 59 57 57 58 58 59 60 62 63 63 63 63 63 62 62 62 63 63 63 63 63 63 63 63 64 64 63 63 63 63 62 62 63 62 62 62 62 62 62 61 61 61 60 59
54 54 56 55 54 54 54 56 57 58 59 59 59 59 59 59 60 60 59 58 56 56 57 58 59 60 61 61 60 60 60 59 60 60 61 62 62 62 62 62 63 63 63 64 63 62 62 62 62 63 62 62 62 62 63 62 62 62 62 62 61 61
55 55 55 54 54 54 54 53 54 55 56 57 58 59 58 59 59 59 58 57 57 58 59 58 58 60 60 60 59 59 58 57 57 56 58 60 61 62 62 62 62 62 62 63 62 62 62 62 63 63 62 62 62 62 62 62 62 62 62 61 61 61
MSLP
1016.99 1016.99 1016.99 1017.03 1017.07 1017.15 1017.19 1017.27 1017.39 1017.47 1017.47 1017.43 1017.39 1017.39 1017.43 1017.43 1017.51 1017.55 1017.59 1017.63 1017.71 1017.83 1017.95 1018.03 1018.03 1018.03 1017.91 1017.99 1017.87 1017.87 1017.91 1017.95 1017.95 1017.95 1018.03 1018.11 1018.19 1018.27 1018.31 1018.35 1018.39 1018.47 1018.55 1018.55 1018.55 1018.47 1018.43 1018.43 1018.39 1018.43 1018.55 1018.63 1018.75 1018.95 1019.15 1019.31 1019.43 1019.55 1019.59 1019.59 1019.59 1019.55
1017.11 1017.11 1017.11 1017.11 1017.19 1017.27 1017.31 1017.43 1017.55 1017.59 1017.59 1017.51 1017.47 1017.43 1017.43 1017.47 1017.55 1017.63 1017.67 1017.79 1017.95 1018.03 1018.19 1018.27 1018.27 1018.15 1018.11 1018.11 1018.07 1018.03 1018.03 1017.99 1018.03 1018.03 1018.07 1018.11 1018.15 1018.27 1018.31 1018.35 1018.39 1018.47 1018.51 1018.55 1018.55 1018.55 1018.51 1018.43 1018.35 1018.27 1018.55 1018.63 1018.75 1018.87 1019.11 1019.27 1019.39 1019.51 1019.55 1019.59 1019.55 1019.51
1017.19 1017.15 1017.19 1017.23 1017.31 1017.43 1017.51 1017.55 1017.59 1017.63 1017.59 1017.59 1017.55 1017.51 1017.51 1017.51 1017.59 1017.67 1017.79 1017.95 1018.07 1018.19 1018.27 1018.35 1018.31 1018.23 1018.23 1018.23 1018.19 1018.15 1018.11 1018.11 1018.11 1018.11 1018.15 1018.11 1018.11 1018.23 1018.35 1018.39 1018.43 1018.47 1018.51 1018.55 1018.63 1018.67 1018.59 1018.51 1018.43 1018.27 1018.67 1018.67 1018.67 1018.91 1019.03 1019.19 1019.35 1019.47 1019.55 1019.47 1019.47 1019.43
1017.19 1017.23 1017.27 1017.35 1017.43 1017.55 1017.63 1017.59 1017.55 1017.55 1017.63 1017.71 1017.71 1017.67 1017.67 1017.67 1017.71 1017.83 1017.95 1018.07 1018.15 1018.27 1018.35 1018.39 1018.31 1018.19 1018.15 1018.23 1018.27 1018.23 1018.19 1018.15 1018.15 1018.23 1018.23 1018.15 1018.11 1018.19 1018.35 1018.47 1018.51 1018.51 1018.59 1018.63 1018.67 1018.67 1018.63 1018.51 1018.35 1018.31 1018.71 1018.87 1018.71 1018.83 1019.03 1019.19 1019.31 1019.43 1019.47 1019.39 1019.39 1019.31
1017.19 1017.23 1017.31 1017.35 1017.51 1017.75 1017.67 1017.59 1017.55 1017.55 1017.67 1017.83 1017.91 1017.83 1017.79 1017.83 1017.91 1017.99 1018.07 1018.15 1018.19 1018.27 1018.39 1018.39 1018.39 1018.31 1018.31 1018.31 1018.39 1018.39 1018.31 1018.27 1018.27 1018.35 1018.35 1018.43 1018.31 1018.31 1018.39 1018.59 1018.63 1018.63 1018.67 1018.67 1018.67 1018.59 1018.59 1018.51 1018.39 1018.35 1018.51 1018.99 1018.83 1018.79 1018.91 1019.07 1019.23 1019.35 1019.43 1019.35 1019.31 1019.27
1017.39 1017.43 1017.39 1017.43 1017.63 1017.75 1017.71 1017.71 1017.63 1017.71 1017.87 1017.95 1017.95 1017.95 1017.91 1017.95 1017.99 1018.03 1018.07 1018.15 1018.19 1018.31 1018.39 1018.39 1018.39 1018.39 1018.35 1018.35 1018.43 1018.47 1018.43 1018.31 1018.31 1018.39 1018.39 1018.51 1018.47 1018.47 1018.55 1018.63 1018.75 1018.83 1018.75 1018.67 1018.71 1018.63 1018.55 1018.55 1018.51 1018.43 1018.47 1018.91 1018.87 1018.79 1018.83 1018.99 1019.15 1019.31 1019.35 1019.35 1019.27 1019.27
1017.59 1017.59 1017.55 1017.51 1017.63 1017.75 1017.79 1017.63 1017.67 1017.87 1018.03 1018.07 1017.99 1017.99 1017.99 1017.99 1018.03 1017.99 1018.07 1018.15 1018.31 1018.39 1018.39 1018.35 1018.39 1018.43 1018.47 1018.35 1018.43 1018.43 1018.43 1018.43 1018.47 1018.47 1018.39 1018.47 1018.59 1018.63 1018.67 1018.75 1018.83 1018.91 1018.87 1018.87 1018.79 1018.75 1018.67 1018.63 1018.55 1018.51 1018.35 1018.67 1018.79 1018.75 1018.79 1018.99 1019.15 1019.27 1019.31 1019.31 1019.23 1019.27
1017.63 1017.67 1017.63 1017.51 1017.67 1017.83 1017.79 1017.75 1017.83 1017.95 1018.07 1017.99 1017.95 1017.99 1018.03 1017.99 1017.99 1018.03 1018.07 1018.15 1018.23 1018.31 1018.35 1018.43 1018.43 1018.47 1018.47 1018.43 1018.47 1018.43 1018.43 1018.47 1018.47 1018.47 1018.35 1018.39 1018.59 1018.75 1018.87 1018.91 1018.95 1018.99 1019.07 1019.03 1019.03 1018.87 1018.79 1018.71 1018.55 1018.51 1018.47 1018.47 1018.63 1018.71 1018.75 1018.87 1019.03 1019.23 1019.31 1019.23 1019.19 1019.23
1017.71 1017.71 1017.59 1017.43 1017.63 1017.75 1017.87 1017.91 1017.91 1018.03 1018.11 1017.87 1017.91 1017.87 1018.03 1018.03 1018.03 1018.03 1018.07 1018.11 1018.11 1018.35 1018.43 1018.51 1018.47 1018.43 1018.47 1018.55 1018.47 1018.47 1018.51 1018.51 1018.39 1018.43 1018.43 1018.51 1018.59 1018.71 1018.87 1018.95 1019.03 1019.07 1019.07 1019.11 1019.07 1019.03 1018.99 1018.83 1018.63 1018.51 1018.47 1018.39 1018.59 1018.67 1018.79 1018.87 1019.03 1019.19 1019.31 1019.23 1019.15 1019.19
1017.75 1017.67 1017.51 1017.43 1017.51 1017.79 1017.99 1018.07 1018.03 1017.99 1018.03 1017.83 1017.87 1017.87 1018.03 1018.15 1018.11 1018.11 1018.15 1018.07 1018.07 1018.23 1018.39 1018.43 1018.47 1018.47 1018.55 1018.63 1018.59 1018.51 1018.55 1018.47 1018.35 1018.27 1018.39 1018.59 1018.59 1018.67 1018.83 1018.91 1018.95 1018.99 1019.03 1018.99 1018.99 1018.99 1018.91 1018.87 1018.67 1018.59 1018.43 1018.35 1018.47 1018.35 1018.51 1018.75 1018.91 1019.07 1019.23 1019.27 1019.15 1019.19
1017.71 1017.59 1017.51 1017.55 1017.59 1017.87 1017.99 1018.03 1017.99 1017.91 1017.91 1017.87 1017.83 1017.91 1018.03 1018.15 1018.15 1018.11 1018.11 1018.15 1018.19 1018.27 1018.35 1018.39 1018.39 1018.39 1018.47 1018.51 1018.55 1018.55 1018.59 1018.51 1018.47 1018.35 1018.35 1018.47 1018.51 1018.63 1018.75 1018.87 1018.95 1018.99 1018.99 1019.03 1019.07 1019.03 1019.07 1018.99 1018.71 1018.51 1018.51 1018.47 1018.35 1018.23 1018.39 1018.51 1018.67 1018.95 1019.19 1019.23 1019.11 1019.19
1017.67 1017.59 1017.67 1017.79 1017.83 1017.91 1017.91 1017.87 1017.83 1017.91 1017.95 1017.83 1017.83 1017.99 1018.07 1018.11 1018.15 1018.15 1018.15 1018.23 1018.23 1018.27 1018.27 1018.31 1018.31 1018.35 1018.43 1018.47 1018.55 1018.55 1018.55 1018.59 1018.55 1018.51 1018.51 1018.59 1018.67 1018.67 1018.79 1018.87 1018.87 1018.91 1018.91 1018.95 1019.03 1018.99 1018.95 1018.99 1018.79 1018.51 1018.31 1018.43 1018.43 1018.39 1018.23 1018.31 1018.47 1018.67 1018.95 1019.07 1019.07 1019.15
1017.75 1017.83 1017.95 1018.11 1018.07 1017.91 1017.75 1017.67 1017.71 1017.91 1017.99 1017.91 1017.99 1018.15 1018.27 1018.19 1018.19 1018.19 1018.23 1018.15 1018.15 1018.15 1018.15 1018.23 1018.27 1018.27 1018.35 1018.47 1018.51 1018.59 1018.55 1018.47 1018.47 1018.51 1018.55 1018.67 1018.79 1018.87 1018.87 1018.91 1018.91 1018.87 1018.91 1018.99 1019.07 1019.07 1018.99 1018.91 1018.83 1018.51 1018.35 1018.23 1018.35 1018.55 1018.19 1018.19 1018.31 1018.47 1018.67 1018.79 1018.91 1019.03
1017.87 1017.99 1018.11 1018.19 1018.15 1017.99 1017.79 1017.67 1017.67 1017.83 1017.91 1017.99 1018.07 1018.23 1018.31 1018.23 1018.19 1018.19 1018.11 1018.07 1017.99 1018.03 1018.11 1018.15 1018.23 1018.31 1018.35 1018.47 1018.55 1018.55 1018.51 1018.43 1018.35 1018.39 1018.51 1018.67 1018.91 1019.03 1019.11 1019.11 1019.11 1019.15 1019.11 1019.07 1019.07 1018.99 1019.07 1019.07 1018.87 1018.63 1018.43 1018.23 1018.23 1018.39 1018.31 1018.15 1018.23 1018.31 1018.43 1018.59 1018.71 1018.95
1018.03 1018.11 1018.11 1018.27 1018.19 1018.03 1017.79 1017.79 1017.83 1017.91 1018.03 1018.11 1018.15 1018.23 1018.23 1018.27 1018.23 1018.11 1018.03 1018.03 1017.99 1018.03 1018.07 1018.11 1018.15 1018.27 1018.35 1018.47 1018.55 1018.55 1018.51 1018.39 1018.39 1018.43 1018.59 1018.75 1018.99 1019.11 1019.19 1019.19 1019.19 1019.31 1019.27 1019.19 1019.07 1018.95 1018.99 1019.07 1018.95 1018.83 1018.55 1018.35 1018.31 1018.27 1018.39 1018.07 1018.15 1018.23 1018.35 1018.43 1018.63 1018.83
1018.15 1018.19 1018.23 1018.27 1018.19 1017.99 1017.87 1017.91 1017.95 1017.95 1018.19 1018.23 1018.23 1018.19 1018.15 1018.19 1018.19 1018.15 1018.07 1018.07 1018.03 1017.99 1017.95 1017.95 1018.03 1018.15 1018.39 1018.43 1018.51 1018.55 1018.43 1018.35 1018.39 1018.51 1018.63 1018.79 1018.95 1019.23 1019.27 1019.27 1019.15 1019.19 1019.39 1019.31 1019.19 1019.03 1018.95 1018.99 1018.91 1018.79 1018.51 1018.31 1018.15 1018.31 1018.87 1019.03 1018.83 1018.31 1018.19 1018.31 1018.47 1018.63
1018.31 1018.27 1018.31 1018.31 1018.31 1018.19 1018.03 1018.07 1018.07 1018.11 1018.23 1018.31 1018.35 1018.31 1018.27 1018.23 1018.27 1018.23 1018.15 1018.11 1018.03 1017.95 1017.87 1017.87 1017.95 1018.07 1018.27 1018.39 1018.47 1018.51 1018.47 1018.43 1018.43 1018.59 1018.75 1018.83 1018.99 1019.11 1019.27 1019.31 1019.23 1019.07 1019.15 1019.27 1019.23 1019.11 1018.95 1018.91 1018.79 1018.55 1018.31 1018.11 1018.11 1018.15 1018.23 1018.87 1019.67 1019.35 1018.43 1018.23 1018.35 1018.43
1018.27 1018.19 1018.27 1018.39 1018.47 1018.39 1018.23 1018.19 1018.23 1018.23 1018.23 1018.31 1018.39 1018.47 1018.43 1018.31 1018.23 1018.11 1018.07 1018.03 1017.91 1017.87 1017.87 1017.87 1017.87 1017.91 1018.07 1018.15 1018.27 1018.39 1018.43 1018.47 1018.55 1018.71 1018.87 1018.99 1019.03 1019.03 1019.07 1019.07 1019.11 1018.91 1018.87 1018.95 1019.07 1019.11 1018.99 1018.75 1018.59 1018.35 1018.23 1018.15 1018.23 1018.39 1018.55 1018.79 1019.23 1019.59 1019.75 1019.15 1018.51 1018.35
1018.31 1018.31 1018.31 1018.31 1018.31 1018.39 1018.43 1018.39 1018.31 1018.27 1018.39 1018.31 1018.23 1018.19 1018.31 1018.35 1018.19 1018.07 1018.11 1017.99 1017.87 1017.79 1017.75 1017.79 1017.83 1017.87 1018.03 1018.15 1018.27 1018.39 1018.51 1018.59 1018.63 1018.79 1018.91 1018.99 1018.95 1018.87 1018.79 1018.75 1018.75 1018.63 1018.47 1018.43 1018.43 1018.43 1018.47 1018.47 1018.39 1018.15 1018.07 1018.07 1018.15 1018.55 1018.79 1018.51 1018.55 1018.95 1019.11 1019.31 1019.39 1018.75
1018.39 1018.27 1018.23 1018.31 1018.31 1018.39 1018.43 1018.51 1018.59 1018.39 1018.31 1018.31 1018.19 1018.03 1018.03 1018.23 1018.15 1018.07 1017.99 1017.91 1017.79 1017.75 1017.71 1017.75 1017.79 1017.83 1017.99 1018.11 1018.27 1018.43 1018.55 1018.55 1018.63 1018.75 1018.95 1018.95 1018.75 1018.51 1018.43 1018.43 1018.43 1018.43 1018.39 1018.27 1018.15 1018.15 1018.19 1018.27 1018.15 1018.03 1017.99 1017.99 1018.03 1018.11 1018.31 1018.39 1018.67 1018.55 1018.43 1018.55 1018.67 1018.95
1018.43 1018.43 1018.47 1018.55 1018.55 1018.59 1018.63 1018.59 1018.59 1018.67 1018.67 1018.47 1018.31 1018.07 1018.07 1017.99 1018.11 1018.11 1018.03 1017.91 1017.91 1017.91 1017.87 1017.83 1017.75 1017.87 1017.99 1018.07 1018.19 1018.35 1018.47 1018.51 1018.51 1018.83 1018.91 1018.67 1018.15 1017.95 1018.03 1018.19 1018.31 1018.39 1018.55 1018.63 1018.55 1018.39 1018.39 1018.39 1018.59 1018.51 1018.19 1018.11 1017.99 1017.87 1017.87 1017.87 1018.07 1018.31 1018.51 1018.31 1018.27 1018.59
1018.63 1018.59 1018.55 1018.51 1018.51 1018.47 1018.43 1018.51 1018.59 1018.71 1018.79 1018.67 1018.47 1018.35 1018.19 1018.07 1018.11 1018.03 1017.99 1017.95 1017.87 1017.83 1017.87 1017.95 1017.95 1018.03 1018.11 1018.23 1018.23 1018.23 1018.31 1018.39 1018.63 1019.03 1018.91 1018.11 1017.95 1018.19 1018.31 1018.31 1018.27 1018.35 1018.27 1018.59 1018.67 1018.47 1018.55 1018.75 1019.03 1018.99 1018.91 1018.63 1018.11 1017.71 1017.63 1017.79 1017.91 1018.03 1018.27 1018.31 1018.23 1018.31
1018.87 1018.79 1018.71 1018.59 1018.59 1018.67 1018.39 1018.19 1018.19 1018.27 1018.43 1018.51 1018.23 1018.11 1017.99 1017.87 1017.87 1017.91 1017.91 1017.83 1017.83 1017.79 1017.83 1017.91 1017.91 1017.95 1018.15 1018.19 1018.19 1018.19 1018.27 1018.87 1019.19 1018.83 1018.15 1018.15 1018.27 1018.27 1018.07 1017.99 1017.99 1018.19 1018.31 1018.35 1018.43 1018.15 1018.31 1018.39 1018.79 1018.91 1018.99 1019.15 1018.99 1018.71 1017.83 1017.99 1017.87 1017.91 1018.03 1017.99 1018.07 1018.11
1019.15 1019.07 1019.07 1018.91 1018.83 1018.67 1018.55 1018.31 1018.07 1018.03 1018.07 1018.35 1018.47 1018.11 1017.99 1017.83 1017.79 1017.59 1017.51 1017.63 1017.71 1017.83 1017.83 1017.87 1017.91 1018.03 1018.07 1018.07 1018.07 1018.07 1018.27 1018.63 1018.51 1018.39 1018.43 1018.39 1018.31 1018.19 1017.99 1017.87 1017.95 1018.03 1018.19 1018.35 1018.27 1018.03 1017.79 1017.91 1018.11 1018.87 1019.55 1019.19 1018.91 1018.83 1018.91 1018.11 1017.91 1017.47 1017.39 1017.51 1017.71 1017.87
1019.55 1019.51 1019.47 1019.31 1019.19 1019.03 1018.91 1018.79 1018.63 1018.51 1018.39 1018.39 1018.23 1018.23 1018.07 1017.87 1017.91 1017.87 1017.75 1017.55 1017.47 1017.55 1017.63 1017.67 1017.71 1017.75 1017.83 1017.87 1017.79 1017.79 1017.87 1017.95 1017.99 1018.23 1018.39 1018.31 1018.15 1018.07 1017.95 1017.79 1017.79 1017.95 1018.07 1018.23 1018.11 1017.83 1017.55 1017.47 1017.55 1017.59 1018.03 1018.71 1018.95 1019.19 1018.51 1017.91 1017.75 1017.43 1017.19 1017.51 1017.43 1017.55
1019.83 1019.79 1019.79 1019.67 1019.51 1019.39 1019.39 1019.39 1019.27 1019.39 1019.55 1019.47 1019.47 1019.27 1019.19 1018.95 1018.39 1018.23 1018.15 1017.79 1017.55 1017.55 1017.63 1017.59 1017.63 1017.63 1017.67 1017.67 1017.59 1017.55 1017.63 1017.75 1017.87 1017.99 1018.11 1018.11 1017.95 1017.87 1017.79 1017.83 1017.75 1017.95 1017.95 1017.71 1017.75 1017.67 1017.55 1017.31 1017.15 1017.27 1017.27 1017.31 1017.83 1018.11 1017.95 1017.63 1017.83 1017.91 1017.11 1016.75 1016.99 1017.19
1020.23 1020.19 1020.07 1019.99 1019.83 1019.71 1019.75 1019.67 1019.71 1019.79 1019.87 1019.95 1019.99 1019.79 1019.43 1019.11 1018.95 1018.59 1018.27 1018.03 1017.75 1017.47 1017.51 1017.79 1017.83 1017.75 1017.67 1017.63 1017.59 1017.47 1017.55 1017.63 1017.71 1017.75 1017.75 1017.87 1017.91 1017.79 1017.67 1017.63 1017.55 1017.67 1017.63 1017.55 1017.71 1017.79 1017.55 1017.31 1017.15 1016.95 1016.99 1017.11 1017.27 1017.23 1017.31 1017.63 1017.83 1017.59 1017.63 1017.11 1016.95 1017.07
1020.31 1020.35 1020.31 1020.19 1020.07 1019.99 1020.07 1020.03 1019.99 1020.03 1019.99 1019.99 1020.03 1020.11 1019.83 1019.55 1019.23 1019.03 1018.91 1018.87 1018.63 1018.27 1017.63 1017.55 1017.83 1017.75 1017.63 1017.59 1017.55 1017.51 1017.39 1017.39 1017.27 1017.27 1017.39 1017.55 1017.63 1017.47 1017.43 1017.31 1017.27 1017.23 1017.27 1017.31 1017.35 1017.43 1017.19 1017.15 1017.35 1016.95 1016.91 1017.11 1017.15 1016.99 1016.91 1016.99 1016.91 1016.91 1016.99 1017.27 1017.19 1016.95
1020.51 1020.43 1020.39 1020.31 1020.27 1020.27 1020.19 1020.11 1020.11 1020.19 1020.23 1020.07 1020.07 1020.03 1019.87 1019.67 1019.55 1019.39 1019.35 1019.11 1018.95 1018.83 1018.63 1018.07 1017.67 1017.67 1017.63 1017.59 1017.63 1017.63 1017.51 1017.63 1017.63 1017.51 1017.51 1017.51 1017.35 1017.19 1017.19 1017.11 1017.07 1017.03 1017.07 1017.03 1017.03 1017.03 1016.99 1016.79 1016.87 1016.87 1017.03 1016.95 1017.03 1016.87 1016.71 1016.59 1016.63 1016.95 1017.11 1017.19 1016.91 1016.95
1020.75 1020.63 1020.51 1020.39 1020.31 1020.35 1020.31 1020.27 1020.31 1020.31 1020.31 1020.27 1020.11 1020.03 1019.95 1019.99 1019.87 1019.75 1019.79 1019.59 1019.35 1019.19 1018.95 1018.79 1018.63 1018.47 1018.31 1018.11 1017.99 1017.79 1017.67 1017.59 1017.51 1017.39 1017.31 1017.23 1017.07 1017.03 1016.95 1016.83 1016.75 1016.71 1016.67 1016.75 1016.71 1016.83 1016.71 1016.43 1016.31 1016.23 1016.35 1016.43 1016.75 1016.71 1016.71 1016.51 1016.47 1016.59 1016.75 1016.63 1016.67 1016.63
1020.91 1020.71 1020.51 1020.39 1020.31 1020.43 1020.39 1020.43 1020.47 1020.47 1020.47 1020.47 1020.35 1020.23 1020.15 1020.19 1020.11 1020.11 1020.15 1019.91 1019.67 1019.43 1019.27 1019.15 1018.91 1018.67 1018.47 1018.27 1018.07 1017.75 1017.59 1017.47 1017.31 1017.27 1017.19 1017.11 1016.99 1016.87 1016.75 1016.67 1016.51 1016.47 1016.47 1016.51 1016.43 1016.35 1016.27 1016.15 1015.99 1015.95 1015.91 1015.95 1016.07 1016.15 1016.07 1016.11 1015.95 1016.11 1016.15 1016.31 1016.55 1016.35
1021.03 1020.87 1020.71 1020.59 1020.51 1020.55 1020.55 1020.59 1020.55 1020.55 1020.55 1020.55 1020.55 1020.51 1020.51 1020.59 1020.55 1020.51 1020.39 1020.15 1019.79 1019.55 1019.43 1019.27 1019.03 1018.79 1018.55 1018.31 1018.07 1017.83 1017.59 1017.35 1017.23 1017.11 1017.07 1016.91 1016.91 1016.79 1016.63 1016.47 1016.35 1016.23 1016.15 1016.03 1015.95 1015.91 1015.83 1015.79 1015.71 1015.59 1015.55 1015.43 1015.39 1015.35 1015.35 1015.35 1015.23 1015.31 1015.47 1015.43 1015.59 1015.87
1021.31 1021.15 1021.03 1020.91 1020.83 1020.79 1020.67 1020.67 1020.63 1020.59 1020.59 1020.55 1020.59 1020.67 1020.71 1020.71 1020.63 1020.55 1020.39 1020.19 1019.99 1019.83 1019.63 1019.39 1019.11 1018.95 1018.71 1018.43 1018.19 1017.95 1017.67 1017.43 1017.23 1017.07 1016.91 1016.79 1016.63 1016.47 1016.35 1016.19 1016.07 1015.95 1015.83 1015.83 1015.79 1015.71 1015.55 1015.43 1015.31 1015.31 1015.15 1014.99 1014.87 1014.79 1014.67 1014.55 1014.63 1014.67 1014.75 1014.91 1015.15 1015.63
1021.51 1021.31 1021.19 1021.11 1021.03 1020.99 1020.95 1020.91 1020.79 1020.79 1020.79 1020.71 1020.75 1020.75 1020.75 1020.75 1020.67 1020.59 1020.51 1020.43 1020.27 1020.11 1019.95 1019.75 1019.47 1019.23 1018.91 1018.59 1018.31 1018.03 1017.75 1017.51 1017.31 1017.15 1016.95 1016.75 1016.55 1016.31 1016.11 1015.99 1015.83 1015.71 1015.59 1015.47 1015.39 1015.31 1015.15 1014.91 1014.75 1014.63 1014.63 1014.67 1014.43 1014.27 1014.11 1014.07 1014.15 1014.23 1014.43 1014.75 1014.91 1015.03
1021.55 1021.43 1021.35 1021.31 1021.23 1021.23 1021.23 1021.11 1020.99 1020.91 1020.83 1020.75 1020.79 1020.79 1020.75 1020.71 1020.63 1020.55 1020.47 1020.43 1020.39 1020.19 1020.07 1019.87 1019.59 1019.31 1018.99 1018.75 1018.55 1018.27 1018.07 1017.91 1017.71 1017.43 1017.11 1016.79 1016.47 1016.19 1015.95 1015.75 1015.55 1015.35 1015.19 1015.11 1015.03 1014.91 1014.75 1014.63 1014.51 1014.35 1014.15 1014.07 1013.99 1013.83 1013.71 1013.71 1013.79 1013.91 1013.95 1014.07 1014.15 1014.47
1021.63 1021.51 1021.47 1021.43 1021.47 1021.47 1021.51 1021.43 1021.31 1021.23 1021.11 1021.03 1020.99 1020.95 1020.87 1020.71 1020.63 1020.55 1020.55 1020.55 1020.43 1020.19 1019.99 1019.79 1019.51 1019.23 1019.03 1018.87 1018.71 1018.47 1018.31 1018.23 1017.95 1017.51 1017.07 1016.67 1016.31 1015.99 1015.75 1015.55 1015.31 1015.11 1014.99 1014.87 1014.83 1014.67 1014.47 1014.31 1014.11 1013.87 1013.71 1013.55 1013.51 1013.27 1013.27 1013.31 1013.39 1013.43 1013.47 1013.55 1013.67 1013.95
1021.71 1021.67 1021.63 1021.67 1021.67 1021.67 1021.67 1021.67 1021.59 1021.47 1021.35 1021.23 1021.15 1021.07 1020.95 1020.87 1020.75 1020.67 1020.63 1020.59 1020.43 1020.19 1019.91 1019.71 1019.55 1019.23 1019.07 1018.87 1018.75 1018.71 1018.67 1018.39 1017.99 1017.63 1017.19 1016.83 1016.47 1015.99 1015.59 1015.35 1015.15 1014.91 1014.75 1014.59 1014.55 1014.35 1014.03 1013.91 1013.63 1013.35 1013.23 1013.11 1013.07 1012.95 1012.91 1012.99 1013.19 1013.31 1013.35 1013.43 1013.47 1013.63
Wind_Speed
5 6 5 4 4 4 7 11 9 9 9 8 10 11 10 10 9 8 7 6 4 1 1 0 1 0 4 1 3 8 9 9 8 8 7 6 6 5 5 4 3 2 2 4 5 5 5 6 5 5 4 9 8 6 5 5 5 4 4 4 3 4
5 5 5 4 3 3 4 6 3 3 3 5 6 9 6 4 6 2 7 4 3 2 2 2 2 1 0 1 1 5 7 8 7 7 6 6 5 5 5 4 4 3 3 3 5 3 3 5 7 6 5 9 5 6 7 5 5 5 5 4 4 7
4 5 5 3 3 4 4 3 3 3 3 4 4 3 2 2 2 3 3 3 3 3 2 1 1 2 1 1 1 5 5 7 6 6 6 5 5 5 4 4 4 3 3 4 3 4 3 3 4 7 7 4 6 6 6 6 5 5 5 5 5 10
6 5 5 4 4 4 4 4 4 4 3 3 2 1 1 2 2 2 3 3 3 3 2 2 4 4 2 1 1 4 4 5 5 4 5 3 5 4 5 4 3 4 2 2 2 3 3 3 4 4 3 3 6 8 6 6 6 5 5 5 5 12
5 5 4 5 4 4 4 4 4 3 3 2 2 1 1 3 2 3 4 3 3 2 2 0 1 2 2 1 1 0 1 1 1 1 2 1 1 1 2 1 1 2 2 3 4 4 2 4 4 4 2 3 4 7 7 6 5 5 5 5 5 13
4 4 4 4 4 4 4 4 4 4 3 2 2 1 1 2 2 2 4 4 3 2 2 1 1 1 1 2 2 2 2 2 1 1 0 1 1 1 2 2 2 2 4 4 4 4 3 3 4 5 3 4 4 6 6 6 6 5 5 5 6 14
5 4 3 3 3 3 4 3 3 4 4 2 1 2 1 2 2 2 3 3 4 2 2 3 2 2 2 2 4 3 3 2 2 1 1 2 1 1 2 3 2 3 3 3 4 5 5 3 4 4 5 3 4 6 6 6 5 5 5 5 7 14
5 4 3 3 3 4 3 4 3 3 3 4 3 4 2 2 2 4 3 4 4 4 4 3 3 2 3 2 3 3 2 2 3 2 1 1 1 1 1 1 2 3 3 3 5 5 5 5 5 4 5 3 4 5 5 6 5 5 5 5 5 11
4 3 3 3 4 4 3 3 3 4 3 4 3 4 3 2 2 2 3 4 5 4 3 3 3 4 2 2 2 3 2 4 1 2 2 1 1 1 1 1 3 4 3 4 4 4 4 5 6 5 5 4 4 5 5 6 6 6 4 5 6 8
4 5 4 3 4 3 4 4 3 3 4 4 4 3 2 3 2 3 3 4 3 3 4 4 3 2 2 3 2 3 3 2 4 3 2 3 3 2 1 0 1 1 3 5 5 3 3 4 4 3 3 3 5 7 7 7 7 6 5 5 5 6
4 4 3 4 2 1 1 3 4 4 4 4 3 3 2 2 3 4 3 3 2 2 2 2 2 3 2 3 4 3 4 2 3 4 2 2 3 2 2 1 1 2 2 3 2 2 3 4 4 4 2 3 4 6 6 7 7 6 6 5 5 4
4 4 3 2 0 0 1 2 3 3 3 3 2 2 2 2 4 3 2 2 2 2 2 2 3 3 3 4 4 4 3 3 4 2 1 1 1 0 1 1 1 1 1 1 3 3 3 4 5 5 5 3 1 4 6 7 7 8 6 5 5 5
3 3 2 2 1 0 1 3 3 3 3 3 4 3 3 3 3 2 2 3 2 3 3 4 4 4 4 4 3 3 3 4 3 2 1 0 0 0 0 1 2 2 2 1 2 4 3 3 5 6 5 5 2 4 5 6 6 7 7 7 6 6
3 3 3 3 2 1 3 3 2 2 1 2 3 3 4 3 3 4 4 3 3 3 3 3 4 4 3 4 3 4 5 4 3 1 1 1 1 1 1 1 3 2 4 4 5 4 3 5 5 5 6 5 3 4 4 6 6 7 7 7 6 5
3 3 3 3 1 1 3 3 2 2 1 1 1 1 1 1 2 4 2 2 3 3 3 4 4 4 4 4 4 4 4 4 1 0 1 1 1 1 1 3 2 3 3 5 5 5 3 4 4 6 6 3 3 2 5 5 5 6 7 7 7 6
3 2 2 2 1 1 1 1 1 3 1 1 2 2 2 2 2 2 3 4 3 4 4 4 4 3 3 3 4 4 4 2 1 1 1 1 1 1 1 1 2 2 3 5 5 6 3 4 5 6 5 5 2 3 6 7 4 5 7 7 7 6
2 1 0 1 0 1 0 0 1 1 1 1 2 2 2 2 4 4 4 4 3 3 3 3 3 2 3 3 4 4 4 2 1 1 2 2 2 1 1 2 2 3 4 5 4 6 6 4 5 5 4 5 1 3 4 3 6 6 4 8 7 7
2 1 1 1 1 1 1 1 0 2 3 3 1 0 1 1 4 4 4 4 2 1 1 2 2 2 3 4 3 3 3 2 1 1 1 1 3 1 1 2 4 4 5 5 5 5 5 5 4 5 3 4 2 1 1 5 3 3 7 4 3 7
3 1 0 0 2 3 3 0 1 2 1 2 3 2 1 2 4 3 3 2 1 1 1 2 3 3 4 4 3 3 3 2 1 1 1 1 2 2 3 4 5 5 5 6 6 6 6 5 5 5 5 2 0 2 5 4 6 4 2 2 6 4
3 2 2 3 3 3 1 0 0 2 3 2 3 4 2 1 2 3 2 1 1 2 2 3 3 3 4 4 3 2 3 2 1 1 1 3 5 5 6 6 6 6 6 5 5 5 4 4 4 5 6 4 1 0 2 6 5 6 5 5 4 2
3 2 2 2 2 1 0 1 1 1 2 1 3 5 4 3 2 2 1 1 1 2 2 3 2 2 3 3 2 2 2 3 2 1 2 6 8 7 6 5 4 4 5 5 5 4 4 2 2 4 3 5 5 2 4 3 5 4 4 4 3 3
5 5 5 3 2 1 1 2 2 1 1 1 3 4 5 2 2 2 1 2 3 3 2 2 2 3 3 3 3 4 4 4 2 1 4 8 6 3 3 3 4 5 4 5 4 2 3 3 3 5 4 4 4 5 4 4 4 6 6 5 5 5
7 8 7 7 6 5 3 4 2 1 1 1 1 1 4 3 3 1 2 2 3 3 2 3 3 3 2 3 4 5 4 2 4 2 7 7 4 5 5 6 6 6 5 3 4 2 4 7 6 1 0 2 5 4 2 2 3 4 7 7 6 7
8 8 8 8 7 6 6 6 5 4 2 3 3 6 5 4 5 6 7 3 1 3 3 3 3 2 2 4 4 5 2 2 5 5 5 7 6 7 6 6 6 7 6 6 4 4 6 6 6 5 5 6 2 1 7 7 7 6 8 9 9 9
7 7 6 7 7 6 6 6 5 5 4 4 3 5 7 7 6 6 7 7 7 4 4 4 2 2 2 3 4 4 3 3 5 4 5 7 7 7 7 6 6 6 6 6 8 6 4 7 9 8 8 1 1 2 7 3 1 4 5 6 7 8
6 6 7 7 7 6 6 5 6 6 6 5 5 6 7 6 7 7 6 5 7 5 5 6 4 3 3 4 4 3 2 3 3 4 5 6 6 5 6 6 7 5 7 7 7 6 6 5 9 9 10 9 6 7 2 2 3 6 1 7 6 7
6 6 6 6 6 5 6 6 7 5 4 4 4 5 5 6 6 6 6 8 9 10 6 5 6 5 5 4 3 3 2 4 5 5 5 5 7 8 7 8 7 7 8 7 5 8 9 7 5 8 9 10 10 7 3 3 6 1 6 2 5 7
6 6 5 5 6 6 5 4 5 5 4 5 5 4 4 4 5 5 5 5 4 6 10 7 6 6 6 6 6 6 6 4 5 5 4 5 6 7 7 7 7 8 7 6 7 7 9 7 8 7 5 6 8 10 9 6 4 6 4 2 4 5
6 6 5 6 6 6 5 5 5 4 5 4 3 3 2 4 5 6 6 7 7 5 2 7 9 8 8 8 7 7 7 4 6 6 5 5 7 8 9 8 7 7 7 6 6 7 8 9 7 9 6 7 7 10 10 10 9 6 6 5 6 7
6 5 4 5 6 6 7 6 6 7 7 6 5 4 3 6 6 6 7 6 6 5 6 5 3 4 5 5 4 4 6 7 7 7 6 7 7 7 7 7 7 7 8 8 7 7 9 9 9 9 8 7 7 8 8 8 9 9 6 5 5 6
3 3 3 5 7 8 8 7 6 7 7 7 7 7 7 8 7 7 7 6 6 5 5 6 6 7 6 7 7 6 4 5 5 6 6 6 7 7 7 7 6 6 8 9 8 9 10 11 10 9 9 8 8 9 10 10 10 9 10 8 8 7
3 3 4 5 6 6 6 6 6 6 7 6 6 7 7 7 6 6 5 6 6 5 6 5 6 6 7 9 8 7 6 6 5 5 5 5 5 6 6 6 7 7 7 9 9 9 9 10 10 9 10 9 10 10 10 10 8 9 11 10 9 6
3 3 4 4 5 5 6 6 6 7 6 6 7 6 5 5 5 5 5 6 7 6 6 7 7 8 8 10 8 8 7 7 6 5 6 5 5 6 6 6 7 7 7 8 8 9 9 10 11 10 9 9 9 10 11 10 9 9 9 8 8 8
4 3 3 4 5 6 7 6 5 6 6 5 5 5 5 5 6 5 5 5 5 5 5 5 7 7 7 8 8 7 7 7 7 7 6 6 6 6 6 7 7 8 9 9 9 10 11 12 11 11 9 9 9 10 10 10 10 10 9 8 8 9
4 3 4 4 4 5 5 5 6 6 6 6 6 6 5 5 5 6 5 6 5 4 4 5 5 5 7 8 9 9 10 10 10 10 9 8 7 7 7 7 7 9 8 8 9 9 9 9 10 11 12 11 10 9 9 9 9 9 9 9 9 8
4 3 4 4 4 4 4 4 4 5 6 6 5 4 4 5 5 6 7 7 5 4 5 4 4 5 6 8 9 10 11 12 12 11 10 9 9 8 8 8 8 8 9 6 9 11 10 11 12 14 13 11 11 11 9 9 9 10 10 9 8 8
5 4 4 4 3 3 3 4 3 4 5 5 6 7 7 8 8 8 8 8 7 7 7 7 7 6 8 9 10 12 12 12 12 12 13 14 13 11 10 9 8 9 9 8 8 10 10 10 11 11 9 12 9 8 9 8 8 7 6 7 7 7
Wind_Direction
130 129 127 126 128 132 143 142 139 140 144 144 156 157 159 162 159 162 156 155 129 76 32 10 96 48 157 124 131 144 140 135 134 131 133 136 143 149 148 155 178 197 263 285 295 302 309 311 314 311 61 74 81 90 97 106 114 121 122 130 130 144
132 133 134 133 141 132 129 130 123 140 145 151 158 162 163 163 162 150 155 121 78 65 39 14 352 234 48 184 157 167 150 140 138 137 142 140 146 150 163 171 180 208 243 274 284 310 325 321 307 299 62 87 85 122 125 131 135 141 139 142 145 146
138 141 138 146 141 136 116 121 134 155 157 144 154 148 159 152 115 154 129 121 95 75 63 27 310 235 189 238 212 180 160 148 145 150 151 150 147 164 173 190 202 211 235 262 300 319 316 318 317 317 62 79 96 113 121 132 139 143 150 155 153 153
144 147 145 160 144 131 135 143 166 171 160 156 135 115 93 97 97 88 88 88 102 91 67 8 339 350 323 158 232 192 174 162 157 154 165 163 157 163 180 207 225 238 247 275 293 292 304 315 309 312 79 103 121 125 133 146 148 155 166 162 162 157
139 147 152 165 152 144 154 159 173 170 147 112 99 92 87 86 95 92 94 96 101 111 101 60 341 342 286 136 186 223 196 104 87 94 158 116 112 148 145 179 251 288 276 269 282 274 284 309 311 316 355 102 148 143 149 151 155 165 176 165 165 157
127 139 153 170 150 159 150 174 172 150 113 110 120 114 98 80 84 98 105 108 97 97 129 122 312 299 286 159 183 212 206 180 139 179 160 153 157 175 153 179 202 238 266 272 269 275 263 255 280 298 294 123 187 159 156 156 159 171 173 166 168 165
124 127 148 164 143 132 155 177 144 126 129 143 142 142 179 135 130 150 139 137 137 160 188 190 200 238 218 190 199 208 219 189 175 188 211 162 217 215 194 203 210 234 248 263 272 273 271 254 243 255 277 143 190 169 163 154 160 167 172 172 174 168
132 135 161 168 151 155 161 150 147 132 115 176 178 197 191 200 168 167 167 171 165 184 191 189 208 212 223 206 206 223 226 198 158 174 152 147 198 282 254 262 252 254 235 234 247 256 269 275 268 254 260 225 180 171 162 156 157 169 176 178 170 169
137 140 173 188 179 174 148 135 111 121 167 194 203 214 179 204 198 184 178 189 182 180 190 199 206 221 210 223 233 226 237 247 224 168 141 128 145 227 276 238 258 264 263 257 246 257 259 262 264 254 228 242 165 165 159 158 164 165 185 188 168 175
151 156 179 195 205 170 155 154 159 165 191 199 218 222 182 195 202 196 203 210 210 173 189 192 203 215 195 233 239 247 228 234 258 248 175 159 163 148 151 59 319 286 281 262 260 248 231 255 278 290 248 236 175 176 169 162 166 169 183 189 175 182
153 163 176 203 211 171 125 169 183 178 188 208 213 209 209 190 201 211 215 212 213 198 193 194 201 220 214 216 226 231 243 238 248 262 248 210 160 162 151 175 251 288 306 318 294 310 303 310 307 298 257 259 201 165 164 160 161 165 179 188 172 183
161 165 178 194 209 57 161 207 203 177 189 204 195 207 226 224 220 217 219 207 194 199 183 205 207 221 219 224 227 228 240 245 255 269 253 267 276 213 168 177 205 228 256 267 285 277 269 283 291 285 291 295 206 206 165 168 165 168 173 179 172 183
159 153 134 126 93 255 235 227 214 198 180 191 195 183 208 224 232 231 215 198 194 189 197 198 214 221 225 225 229 228 247 252 260 258 230 223 331 43 36 4 316 325 303 272 279 278 276 276 276 279 287 283 219 225 191 169 167 163 174 173 175 184
136 127 130 108 98 241 241 240 240 241 223 184 213 193 196 207 220 229 218 212 203 205 202 205 205 224 232 235 236 228 228 251 256 241 174 153 183 151 177 195 249 295 284 293 283 275 293 290 277 278 276 274 284 217 199 167 172 176 171 174 176 177
121 137 133 123 137 239 238 238 240 254 257 259 264 267 270 221 225 250 264 251 230 222 211 208 208 212 225 228 238 244 239 240 219 181 246 249 182 164 176 220 214 229 288 289 282 283 271 261 275 279 274 314 304 227 175 190 185 174 173 176 171 179
109 121 136 140 145 284 285 267 306 256 261 278 284 285 266 241 252 262 249 242 231 228 220 212 208 199 220 227 231 240 241 243 216 187 259 297 316 264 194 253 259 216 242 265 279 278 272 270 263 262 268 268 285 17 46 345 270 189 175 167 176 177
109 90 5 131 37 309 324 25 294 297 273 231 220 264 294 297 270 244 241 239 235 233 236 226 216 214 226 240 239 243 250 239 219 213 254 275 273 235 188 227 254 235 210 234 242 266 278 271 275 275 286 260 223 132 139 129 322 299 205 169 177 172
122 149 187 167 166 232 262 283 330 300 274 288 279 213 234 245 252 245 233 238 243 278 266 254 245 233 229 241 242 248 261 254 242 216 227 252 271 278 217 211 247 235 221 223 222 226 250 263 276 286 301 302 13 2 211 105 104 307 323 309 190 177
140 135 7 99 150 143 163 226 305 298 324 330 321 275 234 271 270 274 260 272 310 337 315 275 259 250 242 242 245 242 243 233 183 200 195 233 255 255 237 218 220 240 224 221 224 223 221 229 254 266 275 279 38 149 170 156 138 143 180 284 289 245
45 23 38 44 44 27 58 120 97 316 327 314 298 298 307 222 241 270 270 299 313 287 271 275 263 247 239 242 238 244 245 229 176 145 198 241 245 231 232 228 229 227 242 249 236 241 231 224 252 265 273 278 248 168 163 179 190 155 163 181 206 258
23 28 33 52 52 54 28 314 240 179 277 286 293 300 295 278 230 231 287 275 225 237 259 280 270 267 263 264 250 257 245 234 186 138 211 232 233 235 229 229 240 224 236 252 265 249 255 222 259 293 290 280 292 250 232 196 177 168 189 201 184 182
30 32 32 24 14 1 270 249 247 247 154 244 284 315 322 288 293 305 265 270 295 318 316 288 296 305 302 290 277 252 233 229 216 76 246 246 247 259 274 255 232 247 214 237 260 207 232 121 260 235 263 310 294 286 236 216 200 172 179 201 202 190
37 33 25 18 12 3 323 329 331 325 86 275 240 281 280 290 328 295 191 210 258 259 254 286 290 289 286 275 263 265 264 33 42 232 256 268 278 269 241 242 238 244 259 214 239 214 188 185 245 240 227 31 279 299 269 245 242 199 179 199 197 199
40 32 21 14 9 359 350 347 342 331 354 31 319 318 318 317 325 332 333 328 243 209 234 258 262 249 247 265 261 255 252 156 219 221 255 268 262 260 257 260 260 253 244 258 223 241 193 200 191 125 266 215 248 208 280 250 223 224 190 193 188 203
42 34 21 16 9 359 4 11 11 25 32 4 342 346 352 343 348 336 329 329 317 336 313 290 278 271 267 265 264 260 228 197 228 216 222 250 255 250 251 253 260 256 240 246 258 249 210 190 212 192 208 180 245 248 237 268 186 258 178 197 195 189
40 32 23 17 9 16 22 23 32 33 26 16 11 1 359 339 331 333 320 299 310 319 324 316 320 309 302 300 295 263 160 185 198 200 210 239 258 266 257 248 242 257 268 247 249 261 259 204 218 214 220 223 211 248 217 220 164 267 196 216 190 190
43 36 23 20 16 21 31 31 36 40 36 47 44 22 357 346 336 328 331 328 321 321 321 319 313 315 312 303 284 276 236 223 221 216 220 226 240 242 245 245 251 232 237 248 241 257 254 252 234 234 225 226 233 223 151 163 217 223 272 200 196 195
43 40 30 27 31 25 36 33 43 36 39 40 40 25 358 6 1 351 3 348 316 304 307 310 307 308 307 308 311 307 297 291 288 269 247 239 243 251 255 251 235 234 237 233 235 241 254 241 238 253 216 225 224 233 220 229 231 206 198 201 210 209
42 37 25 29 39 32 31 32 42 39 40 38 28 23 358 20 22 11 13 3 7 5 343 293 307 315 308 303 303 280 271 266 251 255 236 237 243 247 248 250 246 238 233 238 237 244 256 257 242 248 232 229 209 226 225 222 219 208 220 210 232 195
42 35 26 30 38 39 37 38 44 34 34 24 14 17 28 37 30 18 10 1 358 2 359 351 318 288 284 288 272 243 226 236 233 238 231 234 244 243 243 243 238 236 240 247 240 228 239 250 250 251 238 236 195 230 228 226 219 217 224 216 226 202
18 22 34 44 43 37 38 35 38 37 37 29 18 19 26 32 25 19 7 355 355 356 360 352 341 336 336 334 330 316 286 245 236 234 238 248 248 247 242 237 241 241 246 246 245 243 244 245 245 243 237 227 219 212 212 212 214 208 211 207 217 224
12 14 17 31 51 52 44 35 34 35 38 34 33 34 31 28 21 12 358 351 345 355 1 347 343 342 343 342 338 326 318 311 289 272 263 245 246 259 259 248 247 243 242 242 245 244 243 244 245 245 242 234 232 226 228 227 218 207 206 213 202 207
14 12 33 40 53 46 46 31 29 29 27 29 34 38 31 24 14 12 359 1 2 359 350 351 352 346 345 342 337 331 329 324 319 304 293 276 256 260 258 247 242 246 250 254 251 249 252 244 243 242 241 239 232 226 226 226 221 209 209 203 195 204
34 38 54 55 57 59 47 32 29 33 27 27 35 31 30 21 10 12 11 6 3 358 351 349 340 343 338 331 332 333 328 330 329 322 311 294 282 270 262 252 249 251 253 254 253 249 248 250 247 244 240 246 237 231 228 221 219 215 206 194 197 202
50 43 64 59 56 52 48 43 27 30 30 33 30 24 23 10 8 10 9 5 357 348 346 336 332 330 339 349 354 355 360 357 351 339 329 316 302 289 275 268 261 258 255 249 250 252 252 255 256 251 247 242 244 236 231 225 219 216 205 203 195 186
68 71 73 70 61 61 48 49 51 43 37 34 29 22 17 13 12 17 13 8 354 346 346 334 340 339 1 5 5 6 7 2 353 343 335 329 321 310 299 288 281 275 270 261 261 259 257 254 253 250 248 245 237 238 230 224 214 214 207 200 196 188
55 62 66 72 73 67 51 52 44 53 43 36 35 28 23 20 16 18 14 9 1 355 358 6 360 0 7 12 12 19 11 8 4 360 357 354 341 328 312 295 288 286 283 275 265 260 256 256 259 255 238 237 241 242 231 222 221 221 212 204 200 194